Hourly Data Report for October 05, 2014

All times are specified in Local Standard Time (LST). Add 1 hour to adjust for Daylight Saving Time where and when it is observed.

BATHURST A
NEW BRUNSWICK

47°37'47.000" N
65°44'20.000" W
58.80 m
8100505
71574
ZBF

Download Data

Hourly Data (October 2014)
Hourly Data Report for October 5, 2014
Temp Definition
°C
Dew Point Temp Definition
°C
Rel Hum Definition
%
Wind Dir Definition
10's deg

Wind Spd Definition
km/h
Visibility Definition
km
Stn Press Definition
kPa
Hmdx Definition


Wind Chill Definition


Weather Definition


TIME
00:00 Legend Double Dagger 12.2 12.1 99 7 9 1.2 100.33     Rain,Fog
01:00 Legend Double Dagger 12.7 12.6 99 8 8 4.8 100.29     Fog
02:00 Legend Double Dagger 14.1 13.8 98 11 13 19.3 100.19     Cloudy
03:00 Legend Double Dagger 13.9 13.4 97 13 13 19.3 100.12     LegendNANA
04:00 Legend Double Dagger 13.6 13.1 97 12 17 12.9 100.06     Drizzle
05:00 Legend Double Dagger 13.3 12.8 97 12 15 16.1 100.04     Drizzle
06:00 Legend Double Dagger 13.1 12.6 97 12 13 12.9 100.03     Drizzle
07:00 Legend Double Dagger 13.2 12.7 97 13 16 8.1 100.00     Drizzle,Fog
08:00 Legend Double Dagger 13.6 13.0 96 11 12 6.4 99.93     Drizzle,Fog
09:00 Legend Double Dagger 14.0 13.4 96 12 19 8.1 99.89     Drizzle,Fog
10:00 Legend Double Dagger 14.4 13.8 96 12 17 6.4 99.82     Drizzle,Fog
11:00 Legend Double Dagger 14.8 14.0 95 12 19 8.1 99.73     Drizzle,Fog
12:00 Legend Double Dagger 14.9 14.3 96 13 16 6.4 99.70     Moderate Rain,Fog
13:00 Legend Double Dagger 14.7 14.2 97 14 16 1.2 99.64     Heavy Rain,Fog
14:00 Legend Double Dagger 15.1 14.3 95 14 14 8.1 99.60     Rain,Fog
15:00 Legend Double Dagger 15.2 14.7 97 15 12 1.2 99.58     Rain,Fog
16:00 Legend Double Dagger 15.6 15.1 97 15 13 2.4 99.62     Rain,Fog
17:00 Legend Double Dagger 14.9 13.8 93 36 3 16.1 99.63     Rain
18:00 Legend Double Dagger 14.8 13.5 92 22 8 19.3 99.78     LegendNANA
19:00 Legend Double Dagger 13.7 12.4 92 31 6 19.3 99.85     Rain Showers
20:00 Legend Double Dagger 12.9 11.8 93 28 11 24.1 99.89     Mostly Cloudy
21:00 Legend Double Dagger 12.5 10.8 89 26 7 24.1 99.96     LegendNANA
22:00 Legend Double Dagger 10.8 8.6 86 28 15 24.1 100.00     LegendNANA
23:00 Legend Double Dagger 9.8 7.8 87 27 11 24.1 100.09     Mainly Clear

Notes on Data Quality.

Legend

  • E = Estimated
  • M = Missing
  • NA = Not Available
  • ‡ = Partner data that is not subject to review by the National Climate Archives
Date modified: